Location: Alpha Ridge Park
(39.3209°N, 76.9128°W)
Time: 06:47:31
(UTC-04:00)

Transit 2A - Pass Details

Date: 23 May 2019
Orbit: 593 x 966 km, 66.7° (Epoch: 18 June)

Event Time Altitude Azimuth Distance (km) Brightness Sun altitude
Rises 08:06:53 0° 200° (SSW) 3,503 9.2 24.7°
Reaches altitude 10° 08:09:20 10° 198° (SSW) 2,605 8.6 25.2°
Maximum altitude 08:15:27 71° 115° (ESE) 1,008 7.4 26.3°
Drops below altitude 10° 08:21:49 10° 33° (NNE) 2,710 9.5 27.6°
Sets 08:24:25 0° 32° (NNE) 3,653 10.0 28.1°
